Wind_Speed
28 27 27 27 27 27 28 28 28 26 25 24 23 23 23 23 23 23 23 23 22 21 20 19 19 19 20 20 20 20 21 21 22 23 24 23 23 24 24 25 25 26 26 26
30 29 28 29 28 28 29 30 30 30 29 27 27 27 26 25 25 25 25 24 23 23 22 21 21 22 22 21 22 22 23 23 24 25 26 26 26 26 26 27 28 28 28 27
32 31 30 31 29 29 30 31 31 31 30 29 29 29 28 26 26 26 26 25 25 25 25 24 23 23 24 25 24 24 24 25 25 26 27 27 27 28 29 30 30 30 30 29
34 33 34 32 30 30 31 31 31 32 32 32 31 30 29 28 27 28 27 27 26 26 26 25 25 26 26 27 26 25 25 26 27 27 28 29 29 30 31 31 31 31 31 31
35 35 36 34 32 31 31 32 31 32 32 32 31 31 30 29 29 29 28 28 28 27 27 27 27 28 28 28 27 27 27 28 28 29 29 30 31 31 32 33 32 32 32 32
36 36 37 35 33 33 34 34 32 32 32 32 32 32 31 30 30 29 29 29 29 29 28 28 28 29 30 29 29 29 29 30 30 30 30 31 32 32 33 33 33 32 33 34
35 36 37 35 35 34 35 35 33 33 33 33 33 33 32 31 31 31 30 30 30 29 28 29 30 30 31 31 31 31 31 31 31 31 32 32 32 32 32 32 32 33 33 34
35 35 35 34 35 35 35 35 34 33 33 33 33 32 32 32 31 31 31 31 31 31 30 30 31 31 32 32 32 32 33 33 33 32 32 34 34 34 33 33 33 33 33 33
37 35 34 35 35 34 34 34 34 34 34 33 33 33 32 32 32 32 31 31 31 31 32 32 32 32 33 33 34 35 35 35 35 34 34 35 35 35 34 34 34 35 35 35
35 35 35 35 34 34 34 35 35 35 34 33 33 33 33 33 33 33 33 32 32 32 32 32 32 32 32 33 34 35 36 36 36 35 36 36 36 37 37 35 35 35 36 36
35 35 36 35 34 34 35 35 35 35 34 33 33 33 33 34 34 35 35 34 33 33 32 32 32 32 33 34 35 36 37 37 36 35 35 35 36 36 35 35 35 36 36 36
34 34 35 35 34 34 34 34 35 34 33 33 32 31 32 33 34 34 34 34 33 33 33 33 34 34 34 35 35 36 37 37 35 35 36 36 35 35 35 35 35 36 36 36
33 33 34 34 34 34 35 34 33 33 32 32 31 31 32 32 32 33 33 34 33 33 34 34 34 34 35 36 36 37 37 36 35 35 35 35 35 35 35 35 35 36 36 36
33 33 33 33 34 35 34 34 33 33 32 32 32 32 32 31 32 32 33 33 34 34 34 35 35 35 36 36 36 36 36 36 36 36 35 35 34 34 34 34 34 34 35 35
34 34 34 33 34 35 34 34 34 33 32 32 32 31 31 31 31 32 33 33 33 33 33 34 34 33 34 35 35 35 35 35 35 35 34 34 33 33 33 34 34 34 34 34
32 32 32 32 31 32 33 33 33 33 32 31 32 32 32 33 32 32 32 32 31 31 32 33 34 34 34 34 34 34 34 33 33 34 33 32 32 32 33 34 34 34 35 35
29 28 29 29 29 30 31 31 32 32 32 31 31 32 32 32 32 32 31 31 32 32 32 33 33 34 34 33 33 33 33 33 33 33 33 33 33 33 33 34 35 35 35 35
27 26 26 27 27 29 30 31 31 32 32 32 32 32 31 32 32 31 31 30 30 31 31 32 31 31 31 31 31 32 33 32 33 33 33 33 33 34 34 34 34 33 34 34
26 26 26 27 27 27 28 28 30 30 31 32 31 31 31 31 31 31 30 30 30 30 29 30 30 31 31 30 31 31 31 32 32 33 33 33 33 33 33 33 33 32 32 32
26 26 26 27 27 28 28 28 29 30 30 30 30 30 30 30 30 30 30 30 29 28 28 28 29 29 29 29 30 30 31 31 31 32 33 33 33 34 34 33 33 33 33 33
25 25 25 25 26 26 27 27 27 28 28 28 28 28 28 28 28 28 27 27 27 26 26 27 28 28 28 28 29 29 30 30 31 31 32 33 33 33 32 33 33 33 33 33
24 24 24 24 24 24 24 24 25 26 26 26 26 27 27 26 26 26 25 25 25 26 26 27 27 28 28 28 29 29 30 31 31 32 32 32 32 33 33 33 33 32 32 32
22 23 23 23 23 23 23 23 23 24 24 24 25 25 24 24 24 24 24 24 25 25 26 26 27 28 28 28 29 29 29 30 31 31 32 32 32 32 32 32 31 31 31 31
20 20 21 22 22 21 22 22 22 23 23 24 24 23 23 24 24 24 24 24 25 25 26 26 27 27 28 28 28 28 29 30 30 31 31 31 31 30 30 30 30 30 30 30
17 18 19 19 19 20 20 21 21 22 22 22 22 23 24 24 24 24 24 25 25 25 26 27 27 27 27 28 28 29 30 30 30 30 29 29 29 29 30 30 30 29 29 29
16 17 17 18 19 19 20 20 20 20 21 21 22 22 23 24 24 24 24 25 25 26 27 27 27 27 28 28 28 28 28 29 29 29 29 29 29 29 29 29 29 29 29 29
15 16 16 17 17 18 19 19 19 20 21 21 22 22 23 23 24 24 24 25 25 26 26 26 27 27 28 28 28 28 28 28 28 28 28 28 28 29 29 29 29 29 29 29
Wind_Direction
251 252 251 252 254 257 261 264 267 270 272 275 278 281 282 283 283 283 283 285 288 289 291 293 295 295 293 293 292 288 285 284 284 287 285 285 287 288 288 289 290 291 291 291
252 253 251 253 254 256 260 264 266 267 269 274 277 280 281 282 283 283 283 284 286 286 288 292 294 293 294 293 291 289 287 285 285 286 288 285 286 286 286 287 288 288 288 289
253 254 253 253 255 258 260 263 265 267 269 272 275 277 280 281 281 282 283 283 285 285 286 288 289 289 290 292 291 288 287 288 288 288 289 287 286 286 287 288 288 287 288 289
255 254 254 256 258 259 261 263 265 267 269 271 274 275 277 278 278 279 282 285 286 285 285 282 281 283 285 287 289 288 287 289 289 289 289 288 287 287 288 288 288 288 290 290
254 255 256 257 259 260 262 263 265 266 268 270 272 273 275 276 277 278 279 282 285 284 282 282 281 279 280 283 285 286 287 289 290 290 289 288 287 286 287 287 287 288 289 289
254 255 257 259 260 261 262 263 265 266 268 270 271 272 274 276 276 276 277 279 282 283 280 279 279 278 280 283 285 287 287 288 289 289 289 288 288 287 287 286 286 287 288 288
254 257 259 261 262 264 264 266 266 267 269 270 271 273 274 273 273 274 275 277 278 278 277 279 280 278 281 284 284 285 285 287 287 288 288 287 287 286 286 285 285 286 288 289
255 258 260 262 264 266 267 267 267 268 270 271 271 272 273 273 274 275 275 276 275 275 275 277 278 278 279 281 282 284 285 285 286 286 287 286 286 287 287 285 285 285 288 291
256 258 261 263 265 267 268 268 269 270 270 270 270 271 272 272 273 274 274 275 275 275 274 275 276 278 280 279 281 282 283 283 283 284 285 285 285 286 285 286 286 288 291 291
258 258 259 261 263 265 266 268 269 270 271 270 269 269 270 272 273 274 275 275 274 273 273 275 277 279 279 279 279 280 282 283 283 283 283 283 283 283 284 285 287 290 292 292
258 259 259 260 261 263 266 267 268 269 268 268 268 268 268 270 272 273 274 275 276 274 276 278 279 280 280 279 280 281 282 282 283 283 284 285 285 284 285 286 289 292 293 294
260 261 262 262 263 264 265 265 266 266 266 267 268 269 270 272 274 274 275 277 279 278 277 277 279 280 280 281 280 282 284 284 283 285 286 287 286 284 286 287 289 291 292 293
261 262 262 262 263 264 264 265 266 265 266 268 269 270 272 273 274 276 277 278 278 277 277 278 278 279 280 280 281 282 283 284 284 286 286 285 284 284 286 287 288 290 291 292
261 263 264 263 262 262 263 264 264 265 268 270 271 273 273 274 274 276 277 277 277 277 278 278 277 278 279 279 281 282 285 286 285 286 286 286 285 286 287 288 290 291 291 291
261 262 262 262 262 262 262 263 264 265 267 269 272 274 274 276 278 278 279 279 279 279 279 281 281 282 282 281 283 284 285 287 288 288 288 285 286 288 289 290 291 291 291 290
262 263 262 262 263 263 262 261 263 265 266 270 273 274 276 278 281 281 280 279 280 281 281 283 284 285 285 285 286 286 287 287 288 288 288 288 290 291 291 292 292 293 293 292
262 262 260 260 261 261 261 261 263 266 268 271 274 275 277 279 281 280 279 279 280 282 283 285 286 286 285 284 285 286 287 288 288 290 290 290 291 291 291 292 293 294 293 292
261 262 262 262 263 261 261 261 263 266 268 269 273 276 277 280 280 281 281 282 284 285 285 285 285 285 285 286 286 287 288 288 289 291 292 292 291 292 292 293 294 293 294 293
259 261 264 264 264 264 263 263 264 267 270 272 274 277 279 281 281 281 283 284 283 284 285 286 286 285 285 284 285 286 288 288 289 290 291 293 293 293 293 292 293 293 294 293
261 262 263 262 263 265 265 264 266 269 271 272 274 277 279 281 282 283 284 286 285 285 284 285 285 286 285 285 286 287 288 289 290 291 292 293 293 294 294 293 294 295 295 293
262 263 263 262 264 266 264 264 265 267 269 271 274 277 279 281 283 284 285 285 285 284 284 284 285 286 287 287 287 287 289 290 291 292 293 295 295 294 293 294 295 294 293 292
261 262 262 262 264 263 262 263 265 267 270 272 273 276 278 280 282 284 285 285 285 285 286 285 284 286 288 287 288 289 290 290 290 292 294 296 296 296 296 296 294 293 293 294
264 263 262 264 264 263 263 266 268 271 272 272 274 276 278 280 282 284 286 287 288 287 286 286 287 287 288 288 288 290 291 292 292 293 296 297 298 298 298 297 295 295 294 294
264 263 263 264 264 263 265 267 270 272 273 274 276 278 280 281 282 284 285 286 287 287 288 288 289 289 290 290 290 292 292 293 293 294 296 297 297 298 298 298 298 297 296 295
265 264 263 261 260 262 265 268 270 274 275 275 276 278 279 281 283 284 285 287 288 288 289 290 290 289 289 289 291 292 292 292 293 294 294 295 296 297 298 299 299 299 299 297
263 261 262 261 262 266 269 272 273 274 275 277 279 281 281 282 283 284 286 287 288 290 290 290 290 290 289 290 292 293 293 293 294 294 295 296 296 297 298 298 299 299 299 298
263 263 263 264 267 270 272 273 274 276 278 280 282 283 284 284 284 285 287 288 289 290 290 291 291 290 290 291 292 293 293 294 294 294 296 297 297 297 297 299 300 299 298 297
Height
5867 5869 5870 5871 5873 5874 5875 5875 5876 5877 5878 5879 5879 5879 5879 5878 5877 5877 5876 5875 5874 5873 5871 5870 5870 5869 5868 5867 5866 5865 5864 5863 5862 5861 5860 5858 5857 5855 5854 5853 5851 5849 5848 5846
5860 5862 5863 5864 5866 5868 5869 5869 5870 5871 5872 5873 5872 5873 5873 5872 5871 5871 5870 5869 5868 5867 5866 5865 5865 5864 5862 5861 5860 5859 5858 5857 5856 5855 5853 5852 5851 5849 5848 5846 5845 5843 5841 5839
5852 5854 5855 5857 5860 5861 5862 5863 5864 5864 5866 5866 5866 5866 5866 5866 5865 5865 5864 5863 5862 5861 5860 5859 5859 5858 5857 5856 5854 5853 5852 5851 5850 5848 5847 5845 5844 5842 5840 5839 5837 5835 5833 5831
5844 5847 5847 5852 5853 5854 5855 5855 5856 5857 5858 5858 5859 5859 5859 5859 5859 5858 5857 5856 5855 5854 5853 5852 5851 5851 5850 5849 5847 5846 5845 5844 5842 5841 5840 5838 5836 5835 5833 5831 5829 5827 5825 5823
5836 5837 5839 5843 5845 5846 5847 5847 5849 5849 5850 5850 5851 5851 5852 5851 5851 5850 5849 5849 5848 5847 5846 5845 5843 5843 5842 5841 5840 5838 5837 5836 5834 5833 5831 5830 5828 5826 5825 5823 5821 5819 5817 5814
5827 5828 5830 5835 5837 5837 5839 5839 5841 5841 5842 5842 5842 5843 5844 5844 5843 5842 5841 5841 5840 5839 5838 5837 5836 5835 5834 5833 5832 5830 5829 5827 5826 5824 5823 5821 5819 5817 5815 5813 5811 5809 5807 5805
5819 5819 5821 5825 5827 5829 5830 5831 5832 5832 5833 5833 5833 5834 5835 5834 5834 5833 5833 5832 5831 5830 5830 5829 5828 5826 5825 5824 5823 5822 5820 5818 5817 5815 5813 5811 5810 5808 5806 5804 5801 5800 5798 5795
5810 5812 5816 5817 5818 5820 5821 5821 5822 5823 5823 5824 5824 5825 5825 5825 5825 5825 5824 5824 5823 5822 5821 5820 5819 5817 5816 5815 5814 5812 5811 5809 5807 5806 5804 5802 5800 5798 5796 5794 5792 5790 5788 5786
5802 5806 5807 5807 5809 5810 5811 5812 5812 5813 5814 5814 5815 5815 5816 5816 5816 5815 5815 5814 5813 5813 5812 5811 5810 5809 5807 5806 5805 5803 5801 5799 5797 5796 5794 5792 5790 5788 5786 5784 5782 5780 5778 5776
5792 5795 5797 5798 5799 5800 5802 5802 5803 5803 5804 5805 5805 5805 5806 5806 5806 5806 5805 5804 5804 5803 5802 5801 5800 5799 5798 5796 5794 5793 5791 5788 5786 5785 5783 5780 5778 5777 5775 5774 5772 5770 5768 5766
5783 5786 5787 5789 5790 5791 5792 5792 5793 5794 5794 5795 5795 5795 5796 5796 5796 5796 5795 5794 5794 5793 5792 5791 5790 5789 5787 5786 5784 5782 5780 5778 5776 5774 5771 5769 5768 5766 5765 5763 5762 5760 5758 5756
5774 5776 5777 5779 5780 5781 5782 5782 5783 5784 5785 5785 5786 5786 5786 5786 5786 5786 5785 5785 5784 5783 5783 5782 5780 5779 5778 5776 5774 5771 5769 5767 5765 5764 5761 5759 5757 5756 5754 5753 5752 5750 5747 5745
5765 5766 5767 5769 5770 5771 5771 5772 5773 5774 5775 5776 5776 5777 5777 5777 5776 5776 5775 5775 5774 5773 5773 5772 5771 5769 5768 5767 5765 5762 5759 5757 5755 5753 5751 5749 5747 5746 5745 5743 5741 5739 5737 5734
5755 5756 5757 5759 5760 5761 5761 5763 5764 5765 5766 5767 5767 5767 5767 5767 5767 5766 5765 5765 5764 5764 5763 5761 5760 5759 5758 5756 5754 5753 5750 5748 5745 5743 5741 5740 5738 5736 5735 5733 5731 5729 5726 5724
5746 5747 5748 5749 5749 5750 5752 5753 5754 5756 5757 5758 5758 5758 5757 5757 5756 5756 5755 5755 5754 5753 5752 5751 5750 5748 5747 5745 5744 5742 5741 5738 5736 5734 5731 5730 5728 5727 5725 5723 5721 5719 5716 5714
5737 5738 5739 5740 5740 5741 5742 5744 5745 5747 5748 5749 5749 5749 5749 5748 5747 5746 5745 5744 5744 5743 5742 5741 5740 5738 5737 5735 5734 5732 5730 5729 5727 5725 5723 5720 5718 5717 5715 5713 5710 5708 5705 5703
5729 5729 5730 5731 5731 5732 5733 5735 5737 5738 5739 5740 5740 5740 5739 5739 5738 5737 5735 5734 5734 5734 5733 5731 5730 5728 5727 5725 5724 5722 5720 5719 5717 5715 5713 5711 5709 5707 5705 5703 5700 5698 5695 5692
5721 5722 5722 5723 5724 5724 5725 5727 5728 5730 5730 5731 5731 5731 5731 5730 5729 5728 5727 5726 5725 5724 5723 5721 5720 5718 5717 5715 5714 5712 5710 5709 5708 5706 5704 5702 5699 5697 5695 5693 5690 5688 5686 5683
5714 5714 5715 5716 5716 5717 5718 5719 5720 5721 5722 5722 5722 5722 5721 5721 5720 5719 5718 5717 5716 5715 5713 5712 5711 5709 5708 5706 5705 5703 5702 5700 5698 5696 5694 5692 5690 5687 5685 5683 5681 5678 5676 5673
5706 5707 5708 5708 5709 5710 5710 5711 5712 5713 5713 5713 5713 5713 5712 5712 5711 5710 5709 5708 5707 5706 5705 5703 5702 5700 5699 5697 5696 5694 5693 5691 5689 5687 5685 5682 5680 5678 5675 5673 5671 5668 5666 5663
5699 5700 5700 5701 5702 5702 5703 5703 5704 5704 5705 5705 5705 5704 5704 5703 5702 5701 5700 5699 5698 5697 5696 5695 5693 5692 5690 5689 5687 5685 5683 5682 5680 5678 5675 5673 5670 5668 5665 5663 5660 5658 5655 5653
5691 5692 5693 5694 5694 5695 5695 5696 5696 5697 5697 5697 5697 5697 5696 5695 5695 5693 5692 5691 5690 5689 5688 5686 5685 5683 5682 5680 5678 5676 5674 5672 5670 5668 5666 5663 5660 5658 5655 5652 5649 5647 5644 5642
5684 5685 5686 5686 5687 5688 5688 5689 5689 5690 5690 5690 5689 5689 5689 5688 5687 5686 5685 5684 5682 5681 5680 5678 5677 5675 5673 5671 5669 5667 5665 5663 5661 5659 5656 5653 5650 5647 5645 5642 5639 5636 5634 5631
5678 5678 5679 5679 5680 5681 5682 5682 5683 5683 5683 5683 5682 5682 5681 5680 5679 5678 5677 5676 5675 5673 5672 5670 5668 5667 5665 5663 5661 5659 5657 5654 5652 5649 5647 5644 5641 5638 5635 5632 5629 5626 5624 5621
5673 5673 5673 5674 5675 5676 5676 5676 5676 5676 5676 5676 5675 5674 5674 5673 5672 5671 5670 5668 5667 5665 5664 5662 5660 5658 5656 5654 5652 5650 5648 5645 5643 5640 5638 5635 5632 5629 5626 5623 5620 5617 5614 5612
5669 5669 5669 5670 5670 5670 5670 5670 5670 5670 5669 5669 5668 5667 5666 5665 5664 5663 5662 5660 5659 5657 5655 5653 5651 5650 5648 5646 5644 5641 5639 5636 5634 5631 5628 5626 5623 5620 5617 5614 5611 5608 5605 5603
5664 5664 5664 5665 5665 5665 5665 5664 5664 5663 5663 5662 5661 5660 5659 5658 5657 5655 5654 5652 5650 5649 5647 5645 5643 5641 5639 5637 5635 5633 5630 5628 5625 5622 5620 5617 5614 5611 5608 5605 5602 5599 5596 5594